www.pogodaiklimat.ru

Погода и климат >> Архив погоды >> Россия >> Татарстан >> Казань


АРХИВ ПОГОДЫ в Казани

Время (UTC), дата Ветер
(напр.,м/с)
 
Видим.   Явления Облачность Т
(С)
Тd
(С)
f
(%)
Тe
(С)
Тes
(С)
Комфортность P
(гПа)
Po
(гПа)
Тmin
(С)
Tmax
(С)
R
(мм)
R24
(мм)
S
(см)
00 9.12 В 1 4000 м слабый снег 10/10 600 м
[Sc diur, vesp]
-3.6 -3.8 99 -6 -6 тепло 1019.9 1004.6
03 9.12 В 1 4000 м слабый снег 10/0
[As op]
-3.3 -3.5 99 -6 -6 тепло 1019.2 1004.0 -4.8 1 10
06 9.12 ЮВ 1 4000 м слабый снег 10/0
[As op]
-3.1 -3.3 99 -6 -6 тепло 1019.1 1003.9
09 9.12 ЮВ 1 2000 м снег 10/0
[As op]
-2.2 -3.2 93 -5 -4 тепло 1018.5 1003.4
12 9.12 ЮВ 1 10 км {снег} 10/10 300 м
[Sc]
-2.4 -3.3 94 -5 -5 тепло 1018.5 1003.4
15 9.12 Ю 1 4000 м слабый снег 10/8 300 м
[Sc As op]
-2.8 -2.9 99 -5 -5 тепло 1018.6 1003.5 -2.0 3
18 9.12 Ю 1 10 км в посл. час снег 10/10 600 м
[Sc]
-3.4 -3.5 99 -6 -6 тепло 1019.1 1003.9
21 9.12 ЮВ 1 10 км 10/10 300 м
[Sc]
-4.0 -4.1 99 -7 -7 по сезону 1019.7 1004.4
00 10.12 Ю 1 10 км 10/10 600 м
[Sc]
-4.1 -4.4 98 -7 -7 по сезону 1020.2 1005.0
03 10.12 Ю 2 2000 м снег 10/10 300 м
[Sc]
-4.6 -5.2 96 -9 -9 по сезону 1019.8 1004.5 -4.6 0.6 16
06 10.12 ЮВ 3 4000 м слабый снег 10/0
[As op]
-5.0 -5.7 95 -11 -11 по сезону 1020.4 1005.1 -5.0
09 10.12 ЮВ 3 4000 м слабый снег 10/0
[As op]
-4.2 -5.2 93 -10 -10 по сезону 1020.4 1005.1
12 10.12 ЮВ 2 4000 м слабый снег 10/0
[As op]
-3.4 -4.7 91 -8 -8 по сезону 1020.8 1005.5
15 10.12 ЮВ 2 10 км {снег} 10/10 300 м
[Frnb]
-3.3 -4.6 91 -7 -7 по сезону 1021.3 1006.0 -3.3 3
18 10.12 Ю 1 10 км {снег} 10/10 600 м
[Sc]
-2.9 -4.3 90 -5 -5 тепло 1021.9 1006.6
21 10.12 Ю 2 10 км слабый снег 10/10 600 м
[Sc]
-2.5 -3.6 92 -7 -7 по сезону 1022.3 1007.1
00 11.12 Ю 2 10 км в посл. час снег 10/10 600 м
[Sc]
-2.4 -3.5 92 -7 -7 по сезону 1023.1 1007.9
03 11.12 ЮВ 2 10 км 10/10 600 м
[Sc]
-2.6 -4.0 90 -7 -7 по сезону 1023.5 1008.2 -3.3 0.3 16
06 11.12 ЮВ 2 10 км 10/10 600 м
[Sc]
-3.4 -4.7 91 -8 -8 по сезону 1024.6 1009.3 -3.4
09 11.12 ЮВ 4 10 км 10/10 600 м
[Sc]
-3.6 -5.0 90 -10 -10 по сезону 1024.5 1009.2
12 11.12 ЮВ 1 10 км 10/10 600 м
[Sc]
-4.6 -5.8 91 -7 -7 по сезону 1025.4 1010.0
15 11.12 ЮВ 2 4000 м слабый снег 10/10 600 м
[Sc]
-4.6 -5.7 92 -9 -9 по сезону 1025.2 1009.8 -2.6 0.4
18 11.12 ЮВ 2 10 км в посл. час снег 10/10 600 м
[Sc]
-4.8 -5.9 92 -9 -9 по сезону 1024.4 1009.1
21 11.12 ЮВ 2 10 км слабый снег 10/10 600 м
[Sc]
-4.6 -5.9 91 -9 -9 по сезону 1024.8 1009.5
00 12.12 ЮВ 2 10 км {снег} 10/8 600 м
[Sc As op]
-4.6 -6.8 85 -9 -9 по сезону 1024.6 1009.2
03 12.12 ЮВ 1 10 км 8/0
[Ac trans]
-6.1 -9.0 80 -8 -8 по сезону 1024.2 1008.8 -6.1 0.9 15
06 12.12 ЮВ 1 10 км 6/0
[Ac trans Ci fib]
-7.5 -10.7 78 -10 -10 по сезону 1024.7 1009.1 -7.4
09 12.12 ЮВ 2 10 км 5/0
[Ci fib]
-6.3 -11.9 64 -10 -10 по сезону 1023.7 1008.2
12 12.12 В 3 10 км 9/0
[Ac trans Ci fib]
-6.8 -12.0 66 -12 -12 по сезону 1023.0 1007.6
15 12.12 В 2 10 км ясно -7.5 -12.8 66 -12 -12 по сезону 1022.7 1007.2 -5.7
18 12.12 В 1 10 км 3/0
[Ci fib]
-9.0 -13.4 70 -11 -11 по сезону 1022.2 1006.6
21 12.12 В 1 10 км 8/0
[Ci fib]
-8.6 -13.8 66 -11 -11 по сезону 1021.8 1006.2
00 13.12 В 1 10 км 10/0
[As op]
-7.6 -12.6 67 -10 -10 по сезону 1022.1 1006.6
03 13.12 В 2 10 км слабый дождь со снегом 10/10 300 м
[St]
-7.2 -9.5 84 -12 -12 по сезону 1022.3 1006.8 -9.3 0.2 15
06 13.12 В 2 10 км слабый снег [диам. гололёда 1 мм] 10/0 300 м
[As op]
-5.8 -7.0 91 -10 -10 по сезону 1022.9 1007.5
09 13.12 В 2 10 км {снег} 10/10 300 м
[Sc]
-4.3 -5.9 89 -9 -9 по сезону 1023.3 1008.0
12 13.12 В 1 10 км в посл. час снег 10/10 300 м
[Sc]
-3.2 -4.8 89 -6 -6 тепло 1024.1 1008.8
15 13.12 В 2 10 км 10/10 600 м
[Sc]
-3.5 -5.0 89 -8 -8 по сезону 1025.1 1009.8 -3.1 0.5
18 13.12 СВ 1 10 км 10/10 300 м
[Sc]
-3.0 -4.8 87 -5 -5 тепло 1026.0 1010.7
21 13.12 В 2 10 км 8/8 600 м
[Sc]
-2.4 -4.4 86 -6 -6 тепло 1026.1 1010.8
00 14.12 В 3 10 км 10/6 600 м
[Sc Ac und]
-2.8 -5.7 80 -8 -8 по сезону 1026.8 1011.5
03 14.12 В 4 10 км 10/10 600 м
[Sc]
-2.9 -6.0 79 -9 -9 по сезону 1026.8 1011.5 -3.5 15
06 14.12 СВ 4 10 км 10/10 600 м
[Sc]
-3.4 -4.8 90 -10 -10 по сезону 1026.8 1011.4 -3.9
09 14.12 СВ 2
{10}
10 км 10/10 600 м
[Sc]
-2.1 -3.6 89 -6 -6 тепло 1027.0 1011.7
12 14.12 СВ 3 10 км 10/0
[As op]
-3.3 -4.7 90 -9 -9 по сезону 1026.7 1011.4
15 14.12 СВ 4
{10}
10 км 9/9 600 м
[Sc]
-4.2 -6.5 84 -10 -10 по сезону 1026.6 1011.3 -2.1
18 14.12 СВ 3 10 км 10/10 600 м
[Sc]
-5.5 -6.9 90 -11 -11 по сезону 1026.7 1011.2
21 14.12 СВ 2 10 км 10/10 600 м
[Sc]
-6.0 -7.3 90 -10 -10 по сезону 1026.1 1010.6
00 15.12 СВ 2 10 км 10/10 600 м
[Sc]
-6.5 -8.0 89 -11 -11 по сезону 1026.9 1011.4
03 15.12 СВ 2 10 км слабый снег 10/10 600 м
[Sc]
-7.3 -8.5 91 -12 -12 по сезону 1027.2 1011.6 -7.3 0.0 15
06 15.12 СВ 1 10 км {снег} 10/10 600 м
[Sc]
-7.4 -8.4 93 -10 -10 по сезону 1028.6 1013.0 -7.7
09 15.12 СВ 2 10 км 10/10 600 м
[Sc]
-7.0 -8.6 88 -11 -11 по сезону 1029.2 1013.6
12 15.12 С 2 10 км слабый снег 10/8 600 м
[Sc As op]
-7.4 -9.4 86 -12 -12 по сезону 1030.4 1014.7
15 15.12 С 2 10 км слабый снег 10/8 600 м
[Sc As op]
-8.3 -9.6 90 -13 -13 по сезону 1031.8 1016.1 -6.7 0.0
18 15.12 С 2 10 км {снег} 10/8 600 м
[Sc As op]
-9.3 -10.6 90 -14 -14 по сезону 1032.5 1016.7

 

Местоположение метеостанции Казань (Татарстан, Россия): широта 55.73 долгота 49.20 высота над уровнем моря 119 м.

В архиве по умолчанию представлена погода в Казани за последнюю неделю. Архивные данные за месяц целиком и за предыдущие месяцы, начиная с января 2011 года, Вы можете получить, выбрав интересующий диапазон дат из раскрывающегося списка и нажав кнопку "Ввод!".


*Определитесь, кто Вы:
робот инопланетянин человек

Внимание! Время в таблицах - всемирное. Для получения местного времени необходимо прибавить поправку, которая в Казани равна 3 ч.

Смотрите также архив погоды в соседних городах и на ближайших метеорологических станциях:

Погода в Лаишево (Татарстан, Россия) (40 км)
Погода в Вязовых (Татарстан, Россия) (44 км)
Погода в Арске (Татарстан, Россия) (57 км)
Погода в Камском Устье (Татарстан, Россия) (58 км)
Погода в Больших Кайбицах (Татарстан, Россия) (74 км)
Погода в Алексеевском (Татарстан, Россия) (74 км)
Погода в Морках (Марий-Эл, Россия) (79 км)
Погода в Богатых Сабах (Татарстан, Россия) (84 км)
Погода в Тетюшах (Татарстан, Россия) (91 км)
Погода в Чистополе (Татарстан, Россия) (102 км)

Пояснения к столбцам:

Ветер - указаны скорость ветра в м/с - средняя за 10 мин, порывы в срок и между сроками (в фигурных скобках) и направление, откуда дует ветер: С - северный, СВ - северо-восточный, В - восточный, ЮВ - юго-восточный, Ю - южный, ЮЗ - юго-западный, З - западный, СЗ - северо-западный.
Видимость - горизонтальная дальность видимости в метрах или километрах. При видимости от 1 до 10 км при отсутствии осадков обычно наблюдается дымка, при ухудшении видимости до 1 км и менее - туман. В сухую погоду видимость может ухудшаться дымом, пылью или мглою.
Явления - указаны атмосферные явления, наблюдавшиеся в срок или в последний час перед сроком; фигурными скобками обозначены явления, наблюдавшиеся между сроками (за 1-3 часа до срока); квадратными скобками обозначены град или гололедные отложения с указанием их диаметра в мм.
Облачность - указаны через наклонную черту общая и нижняя облачность в баллах и высота нижней границы облаков в метрах; квадратными скобками обозначены формы облаков: Ci - перистые, Cs - перисто-слоистые, Cc - перисто-кучевые, Ac - высококучевые, As - высокослоистые, Sc - слоисто-кучевые, Ns - слоисто-дождевые, Cu - кучевые, Cb - кучево-дождевые. Подробнее классификацию облаков см. в Атласе облаков (PDF).
T - Температура воздуха - температура, измеренная на высоте 2 м над землей.
Td - Температура точки росы - температура, при понижении до которой содержащийся в воздухе водяной пар достигнет насыщения.
f - Относительная влажность воздуха - влажноcть воздуха, измеренная на высоте 2 м над землей.
Te - Эффективная температура - температура, которую ощущает одетый по сезону человек в тени. Характеристика душности погоды. При расчете учитывается влияние влажности воздуха и скорости ветра на теплоощущения человека.
Tes - Эффективная температура на солнце - температура, которую ощущает человек, с поправкой на солнечный нагрев. Характеристика знойности погоды. Зависит от высоты солнца над горизонтом, облачности и скорости ветра. Ночью, в пасмурную погоду, а также при ветре 12 м/с и более поправка равна нулю.
P - Атмосферное давление - приведенное к уровню моря атмосферное давление.
Po - Атмосферное давление - измеренное на уровне метеостанции атмосферное давление.
Tmin - Минимальная температура - минимум температуры воздуха на высоте 2 м над землей.
Tmax - Максимальная температура - максимум температуры воздуха на высоте 2 м над землей.
R - Количество осадков - Количество выпавших осадков за период времени, мм. При наведении курсора мыши на число - период времени, за который выпало указанное количество осадков.
R24 - Количество осадков - Количество выпавших осадков за 24 часа, мм.
S - Снежный покров - Высота снежного покрова, см. При наведении курсора мыши на число - состояние снежного покрова и степень покрытия местности в баллах.